Temperature
16 16 16 16 16 16 16 16 16 16 16 16 16 16 16 16 16 16 16 15 15 15 15 15 16 16 16 16 16 16 16 16 16 16 16 17 17 17 17 17 17 17 17
16 16 16 16 16 16 16 16 16 16 16 16 16 16 16 15 15 15 15 15 15 15 15 15 15 15 15 16 16 16 16 16 16 16 16 16 17 17 17 17 17 17 17
16 16 16 16 16 16 16 16 16 16 16 16 16 15 15 15 15 15 15 15 15 15 15 15 15 15 15 15 15 15 16 16 16 16 16 16 16 17 17 17 17 16 16
16 16 16 16 16 16 16 16 16 16 16 16 16 15 15 15 15 15 15 15 15 15 15 15 15 15 15 15 15 15 15 15 15 16 16 16 16 16 16 16 16 16 16
16 16 16 16 16 16 16 16 16 16 16 15 15 15 15 15 15 15 15 15 15 15 15 15 15 15 15 15 15 15 15 15 15 15 15 15 16 16 16 16 16 16 16
16 16 16 16 16 16 16 16 16 16 16 15 15 15 15 15 15 15 15 14 14 14 14 14 14 14 14 14 15 15 15 15 15 15 15 15 15 16 16 16 16 16 16
16 16 16 16 16 16 16 16 16 16 15 15 15 15 15 15 15 15 14 14 14 14 14 14 14 14 14 14 14 14 14 14 14 14 15 15 15 15 15 15 15 15 15
16 16 16 16 16 16 16 16 16 16 15 15 15 15 15 14 14 14 14 14 14 14 14 14 14 14 14 14 14 14 14 14 14 14 14 14 14 15 15 15 15 15 15
16 16 16 16 16 16 16 16 16 15 15 15 15 15 15 14 14 14 14 14 14 14 14 14 14 14 14 14 14 14 14 14 14 14 14 14 14 14 14 14 15 15 15
16 16 16 16 16 16 16 16 15 15 15 15 15 15 15 15 14 14 14 14 14 14 14 13 13 13 13 13 13 13 13 14 14 14 14 14 14 14 14 14 14 14 14
16 16 16 16 16 16 15 15 15 15 15 15 15 15 15 15 14 14 14 13 13 13 13 13 13 13 13 13 13 13 13 13 13 13 14 14 14 13 13 14 14 14 14
16 16 16 16 16 15 15 15 15 15 15 15 15 15 15 14 14 14 14 13 13 13 13 13 13 13 13 13 13 12 13 13 13 13 13 13 13 13 13 13 13 13 13
16 16 16 16 16 16 15 15 15 15 15 15 14 14 14 14 14 14 14 13 13 13 13 13 13 12 12 12 12 12 12 12 12 12 12 13 13 13 13 13 13 13 13
16 16 16 16 16 15 15 15 15 15 15 14 14 14 14 14 14 14 13 13 13 13 13 13 12 12 12 12 12 12 12 12 12 12 12 12 12 12 12 12 12 13 13
16 16 16 16 16 15 15 15 15 14 14 14 14 14 14 14 13 13 13 13 13 12 12 12 12 12 12 12 12 12 12 12 12 12 12 12 12 12 12 12 12 12 12
16 16 16 16 16 15 15 15 15 14 14 14 14 14 14 13 13 13 13 13 13 13 12 12 12 12 12 12 12 12 12 12 12 12 12 11 11 11 12 12 12 12 12
16 16 16 16 16 15 15 15 15 14 14 14 14 13 13 13 13 13 13 13 13 12 12 12 12 12 12 12 12 12 11 11 11 11 11 11 11 11 11 11 11 11 11
16 16 16 16 15 15 15 15 15 14 14 14 14 13 13 13 13 13 13 13 12 12 12 12 12 12 12 12 11 11 11 11 11 11 11 11 11 11 11 11 11 11 11
16 16 16 15 15 15 15 15 14 14 14 14 14 13 13 13 13 13 13 13 12 12 12 12 12 12 12 11 11 11 11 11 11 11 11 11 11 11 11 10 10 11 10
16 16 16 15 15 15 15 14 14 14 14 14 13 13 13 13 13 13 13 12 12 12 12 12 12 12 11 11 11 11 11 11 11 11 11 11 10 10 10 10 10 10 10
16 16 15 15 15 15 15 14 14 14 14 14 13 13 13 13 13 13 12 12 12 12 12 11 11 11 11 11 11 11 11 11 11 11 10 10 10 10 10 10 10 10 10
16 15 15 15 15 15 14 14 14 14 14 13 13 13 13 13 13 12 12 12 12 12 11 11 11 11 11 11 10 10 10 10 10 10 10 10 10 10 10 9 9 9 9
16 15 15 15 15 15 14 14 14 14 13 13 13 13 13 13 12 12 12 12 12 11 11 11 11 11 10 10 10 10 10 10 10 9 9 10 10 9 9 9 9 9 9
15 15 15 15 14 14 14 14 13 13 13 13 13 12 12 12 12 12 12 12 12 11 11 11 11 10 10 10 10 10 9 9 9 9 9 9 9 9 9 9 9 9 8
15 15 14 14 14 14 14 13 13 13 13 13 12 12 12 12 12 11 11 11 11 11 11 10 10 10 10 10 9 9 9 9 9 9 8 8 8 8 8 9 8 8 8
14 14 14 14 14 13 13 13 13 13 12 12 12 12 11 11 11 11 11 11 11 11 10 10 10 10 10 9 9 9 8 8 8 8 8 8 7 7 7 8 8 7 7
Wind_Speed
2 2 3 3 4 4 4 4 5 5 5 6 6 6 5 6 6 6 6 7 7 8 8 8 8 8 8 9 9 9 8 7 7 7 7 6 6 4 2 1 2 2 2
4 4 4 4 4 5 5 5 5 4 3 4 5 5 5 6 6 6 6 7 7 7 8 8 8 9 9 9 9 9 9 8 8 7 7 6 6 5 3 2 2 2 2
7 6 4 4 5 6 7 7 6 6 4 5 5 4 5 5 5 5 6 6 6 7 8 8 8 9 9 9 9 10 9 9 8 8 8 7 7 5 3 2 2 2 3
9 8 5 4 6 8 6 4 4 4 4 4 4 4 4 4 5 5 5 5 5 6 7 9 9 10 10 10 10 10 9 9 9 8 8 8 7 6 5 4 3 3 3
10 9 6 5 7 7 5 4 4 3 4 4 3 4 4 4 4 6 5 5 6 6 7 8 9 10 11 12 11 10 9 8 8 8 9 9 7 6 6 5 4 4 4
10 9 6 6 8 5 5 4 4 4 3 3 4 5 5 4 4 4 4 6 6 6 7 8 8 9 11 13 13 12 9 8 8 8 9 9 8 6 6 6 5 5 5
9 8 5 5 5 4 4 4 3 5 4 3 4 4 5 5 6 5 4 5 6 7 8 8 8 8 9 11 14 14 11 10 10 9 9 9 8 7 7 8 7 6 6
8 7 5 4 4 4 5 5 4 3 3 3 3 3 3 5 5 5 4 4 4 5 6 7 8 8 9 9 11 14 14 12 11 10 10 9 9 8 8 8 7 7 6
6 7 6 5 4 4 4 4 4 4 3 3 3 3 3 1 2 4 4 4 4 3 3 5 6 7 7 8 9 11 13 12 11 10 10 10 10 9 8 7 6 6 6
4 6 6 6 4 3 3 3 3 3 3 2 2 2 2 3 2 1 3 4 4 3 3 3 4 5 6 7 8 9 11 12 11 11 10 10 9 8 7 6 6 5 5
2 4 5 5 4 3 3 3 4 4 3 2 1 1 3 3 2 3 1 3 4 3 3 2 2 3 5 5 6 7 9 10 10 10 10 10 9 8 7 7 6 5 4
1 2 4 4 4 3 3 3 3 4 3 3 2 2 2 2 1 2 1 1 2 3 3 3 3 3 3 4 5 6 7 7 8 9 9 9 9 8 8 7 7 6 5
1 1 2 3 2 2 3 3 3 3 2 3 2 2 2 1 2 3 3 1 1 2 3 3 3 3 3 4 5 6 6 6 7 7 8 8 8 8 8 7 7 6 6
3 3 3 3 3 3 3 3 2 2 2 2 2 2 2 1 1 2 3 3 1 2 3 3 3 3 4 4 5 6 5 5 6 6 6 7 7 7 7 6 6 6 6
3 4 4 3 3 3 3 3 2 1 2 2 2 2 1 1 1 1 2 3 3 1 2 3 3 3 4 4 5 5 4 5 5 5 6 6 6 6 6 6 5 5 5
4 5 4 4 3 3 3 3 2 1 2 1 1 2 1 1 1 1 1 1 2 3 2 3 3 3 4 4 5 5 5 5 5 5 6 6 6 6 6 6 5 5 5
5 5 5 4 3 3 3 3 2 2 2 1 1 1 1 1 1 1 1 1 1 2 2 3 2 3 2 3 5 5 5 5 5 5 6 6 5 5 5 5 5 5 5
4 5 5 4 3 3 3 3 3 3 3 1 0 1 0 1 1 1 1 1 0 1 2 2 3 3 2 3 3 3 4 5 5 5 6 6 6 6 6 5 5 5 5
4 4 4 4 4 4 4 3 4 3 3 2 2 2 1 1 1 0 0 0 0 0 1 1 3 2 2 3 3 3 4 4 5 6 6 6 7 7 7 6 6 7 7
4 4 4 4 4 3 3 3 3 3 2 1 1 1 2 2 3 2 1 1 1 1 1 0 2 3 3 3 2 3 4 3 3 5 6 7 7 8 8 8 8 8 9
5 4 4 3 3 3 3 4 4 3 3 1 0 1 1 2 3 2 2 2 2 1 0 0 2 2 3 3 3 3 3 4 4 3 3 4 5 6 7 9 9 10 10
4 4 4 4 3 2 3 5 5 3 3 2 1 1 1 1 1 1 1 2 3 2 2 1 2 2 4 3 3 3 3 3 4 3 2 4 3 3 6 8 10 11 11
4 4 4 4 3 2 4 5 6 4 3 2 2 1 1 1 1 1 1 1 1 2 3 3 3 4 4 4 3 3 2 3 4 4 2 4 3 4 6 8 10 11 12
4 4 4 4 3 2 3 4 5 3 2 1 1 2 2 2 1 1 0 1 2 3 3 2 4 5 5 4 4 3 4 3 4 3 1 3 4 4 5 8 11 12 12
4 4 3 4 3 2 2 4 5 3 2 1 1 1 2 2 3 1 1 1 3 4 5 4 5 5 6 6 3 0 2 2 4 4 1 2 4 4 4 5 9 11 11
4 4 3 3 3 2 2 3 5 3 2 1 1 2 3 3 4 2 2 2 3 4 3 4 4 6 5 6 5 2 2 2 3 4 3 1 3 3 4 4 4 7 8
Wind_Direction
81 67 53 40 40 52 62 61 58 57 55 62 75 85 90 96 96 92 86 86 78 71 66 61 57 51 47 41 36 31 27 23 16 9 2 357 354 5 1 112 140 146 173
83 75 59 46 40 51 63 69 68 68 58 66 65 75 88 94 92 87 82 78 70 62 57 53 50 47 43 37 30 25 24 23 19 14 8 359 359 7 27 70 103 116 131
76 76 62 44 44 58 63 64 60 59 56 57 54 61 75 75 84 92 85 74 61 54 51 47 44 40 37 31 26 22 21 23 20 16 15 12 9 14 34 60 93 111 107
77 76 64 47 51 58 59 62 56 56 49 51 52 49 59 64 69 89 91 77 65 54 50 48 45 39 34 28 22 19 18 20 22 20 19 18 19 28 45 55 77 111 118
74 77 68 55 61 59 50 62 54 63 62 54 59 52 45 53 54 78 75 67 65 60 53 47 44 41 35 28 20 15 13 18 21 22 22 20 23 32 42 51 74 96 109
72 77 71 59 62 59 49 54 58 50 59 57 69 55 37 33 43 54 60 62 60 59 56 51 43 35 32 29 22 19 20 23 25 26 25 22 26 39 48 54 71 87 92
72 75 74 62 62 67 61 59 64 54 39 46 69 42 22 29 35 31 37 51 52 55 59 54 51 43 33 29 24 25 28 30 29 27 29 26 31 49 59 58 62 73 79
73 84 82 76 69 74 57 50 60 67 36 39 90 86 36 9 5 15 17 37 37 50 53 56 58 54 45 36 27 28 30 31 32 31 33 34 41 55 61 60 60 61 64
76 83 88 87 78 81 75 60 69 84 67 27 57 121 128 185 323 344 6 18 15 25 33 53 57 51 44 40 31 29 30 31 34 36 37 38 41 45 50 55 56 55 52
78 86 91 94 90 86 87 71 77 86 95 57 17 43 113 147 140 354 340 351 3 19 11 37 44 42 43 39 30 28 30 30 33 34 33 35 35 37 39 42 46 49 50
66 90 97 101 97 91 93 83 77 76 88 101 78 56 62 63 83 126 312 328 344 341 347 359 23 33 32 30 25 25 29 29 30 29 28 27 26 29 33 34 34 38 39
12 87 105 104 104 100 103 100 95 90 87 88 83 80 101 104 106 118 143 295 318 318 339 349 356 2 14 16 11 16 22 27 27 26 25 22 21 21 21 22 23 28 28
199 187 124 114 108 116 114 104 95 87 90 94 95 93 102 127 156 142 130 147 329 317 337 338 332 340 354 7 0 5 13 18 21 22 23 20 17 16 16 17 17 17 14
198 179 152 144 138 135 121 106 95 91 89 91 87 92 91 70 116 141 150 140 63 348 344 316 325 332 336 352 355 3 5 11 10 14 17 15 13 11 11 12 12 12 4
191 171 160 154 145 140 131 122 106 104 94 86 87 87 87 34 62 101 134 148 144 133 303 297 310 317 329 328 337 349 350 358 3 4 7 10 9 8 11 12 12 10 5
179 166 164 161 156 149 139 125 120 110 99 79 93 86 68 41 51 61 99 118 143 158 216 271 272 290 317 328 339 341 336 344 349 353 359 2 4 7 8 7 6 6 4
168 168 166 161 162 159 146 135 137 131 117 80 64 106 83 87 73 49 71 86 106 138 184 284 288 306 324 323 332 339 337 331 330 336 338 343 346 347 350 350 353 353 350
171 172 162 160 169 167 158 154 148 139 140 141 145 105 146 94 72 57 81 78 104 161 166 275 308 321 311 304 307 316 328 329 320 326 329 331 336 335 329 325 326 329 327
169 164 160 166 175 172 166 166 160 157 160 176 176 168 194 142 140 283 121 125 294 11 131 202 295 307 309 320 333 325 328 328 320 321 322 321 321 321 317 309 309 309 308
163 165 164 167 170 165 163 165 162 162 166 189 194 184 190 178 192 205 195 201 166 54 31 3 308 313 309 313 338 328 326 321 315 320 321 316 312 312 311 302 300 301 300
165 161 154 154 155 155 174 170 169 165 160 168 236 253 236 213 202 196 187 192 160 138 68 339 306 318 314 318 305 297 306 310 311 308 316 317 319 315 309 304 298 297 297
163 150 154 154 151 170 172 166 157 152 153 158 197 264 284 278 272 248 229 194 171 170 201 218 258 271 278 274 282 292 300 328 314 305 321 304 309 296 295 297 299 297 298
161 155 163 156 163 183 165 161 161 147 154 168 183 213 282 316 332 310 308 317 294 275 215 198 222 245 256 255 261 288 275 261 266 280 318 297 299 291 291 297 304 302 299
164 165 167 170 169 199 176 168 165 145 140 160 179 198 227 279 268 211 192 331 304 300 280 255 230 244 250 250 230 240 253 273 282 285 260 285 298 288 296 301 305 307 305
170 169 167 168 173 212 181 169 152 138 146 208 234 236 231 243 267 242 155 275 301 305 309 303 287 289 297 299 284 327 324 323 304 295 264 255 288 296 295 294 305 311 309
170 163 159 168 173 188 178 170 152 143 159 240 290 291 276 262 268 249 209 228 274 286 305 329 332 327 319 313 306 259 230 257 279 291 282 254 288 313 310 294 303 315 316
Height
1559 1559 1558 1557 1557 1556 1556 1556 1555 1555 1555 1555 1555 1555 1556 1556 1555 1555 1555 1554 1553 1553 1552 1551 1550 1549 1548 1547 1546 1545 1543 1542 1541 1539 1538 1536 1533 1529 1527 1527 1529 1532 1534
1560 1560 1559 1558 1558 1557 1557 1557 1556 1556 1556 1556 1556 1557 1557 1557 1556 1556 1556 1555 1554 1553 1552 1551 1550 1549 1548 1547 1546 1545 1543 1542 1541 1539 1538 1536 1533 1530 1528 1528 1530 1532 1533
1561 1561 1560 1559 1559 1558 1558 1558 1558 1558 1557 1558 1558 1558 1558 1558 1557 1557 1557 1556 1555 1554 1553 1552 1551 1550 1549 1547 1546 1545 1543 1542 1541 1539 1538 1536 1533 1530 1528 1529 1530 1531 1533
1562 1561 1561 1560 1560 1559 1559 1559 1559 1559 1559 1559 1559 1559 1559 1559 1559 1558 1557 1557 1556 1555 1554 1553 1551 1550 1549 1547 1546 1544 1542 1541 1540 1539 1537 1536 1533 1530 1530 1530 1531 1532 1533
1563 1562 1562 1561 1561 1560 1560 1560 1560 1560 1560 1560 1560 1560 1560 1560 1560 1559 1558 1558 1557 1556 1555 1553 1552 1550 1549 1547 1545 1542 1540 1540 1539 1538 1537 1535 1533 1531 1531 1531 1532 1532 1534
1564 1563 1562 1562 1562 1561 1561 1561 1561 1561 1561 1561 1561 1561 1561 1561 1561 1560 1560 1559 1558 1557 1555 1554 1552 1551 1549 1547 1544 1540 1538 1538 1538 1538 1536 1534 1532 1531 1531 1531 1532 1533 1534
1565 1564 1564 1563 1563 1562 1562 1562 1562 1561 1562 1562 1562 1562 1563 1563 1562 1562 1561 1560 1559 1558 1556 1555 1553 1551 1549 1547 1544 1540 1538 1538 1538 1537 1536 1533 1529 1529 1531 1532 1533 1534 1535
1565 1565 1565 1564 1564 1563 1563 1563 1563 1562 1562 1563 1563 1563 1563 1565 1563 1563 1562 1561 1560 1558 1557 1555 1554 1552 1550 1548 1545 1542 1540 1539 1538 1537 1536 1534 1531 1530 1532 1533 1534 1535 1536
1566 1565 1565 1565 1565 1564 1564 1564 1564 1563 1563 1563 1563 1563 1563 1563 1564 1564 1562 1562 1560 1559 1557 1556 1554 1552 1550 1548 1546 1544 1542 1541 1539 1537 1537 1535 1534 1534 1534 1535 1535 1536 1537
1566 1566 1566 1565 1565 1565 1565 1564 1564 1564 1564 1563 1563 1563 1563 1563 1563 1563 1563 1562 1561 1559 1558 1556 1555 1553 1551 1549 1547 1545 1543 1541 1540 1539 1538 1537 1536 1536 1535 1535 1536 1536 1537
1567 1566 1566 1566 1566 1565 1565 1565 1564 1564 1564 1564 1563 1563 1563 1563 1563 1563 1562 1562 1561 1560 1558 1557 1555 1553 1551 1549 1547 1545 1543 1542 1540 1539 1538 1538 1537 1536 1536 1536 1535 1536 1536
1567 1566 1566 1566 1566 1566 1565 1565 1565 1564 1564 1564 1564 1563 1563 1563 1562 1562 1561 1561 1560 1560 1558 1557 1555 1553 1551 1549 1547 1545 1543 1542 1540 1539 1539 1538 1537 1536 1536 1535 1535 1535 1535
1566 1566 1566 1566 1566 1566 1565 1565 1565 1565 1564 1564 1564 1563 1563 1562 1562 1562 1561 1561 1560 1559 1558 1557 1555 1553 1551 1549 1547 1544 1543 1542 1541 1540 1539 1538 1537 1536 1535 1534 1534 1534 1534
1566 1566 1566 1566 1566 1566 1565 1565 1565 1565 1564 1564 1564 1563 1563 1562 1562 1561 1561 1560 1559 1559 1558 1557 1555 1553 1551 1549 1546 1544 1542 1542 1541 1540 1539 1538 1537 1536 1535 1534 1533 1533 1533
1566 1566 1566 1566 1566 1565 1565 1565 1565 1565 1564 1564 1563 1563 1563 1562 1562 1561 1560 1560 1560 1558 1557 1556 1555 1553 1551 1549 1547 1545 1543 1542 1541 1540 1539 1537 1536 1535 1534 1533 1532 1532 1531
1565 1565 1565 1565 1565 1565 1565 1565 1565 1564 1564 1563 1563 1563 1562 1562 1561 1560 1560 1559 1559 1558 1557 1556 1554 1553 1551 1549 1547 1545 1543 1542 1541 1540 1538 1537 1536 1534 1533 1532 1531 1530 1530
1564 1564 1564 1564 1564 1564 1564 1564 1564 1564 1563 1563 1562 1562 1562 1561 1561 1560 1559 1559 1558 1557 1556 1555 1554 1552 1550 1549 1547 1545 1543 1541 1540 1539 1537 1536 1535 1533 1532 1531 1530 1529 1528
1563 1563 1563 1563 1563 1564 1564 1563 1563 1563 1563 1562 1562 1561 1561 1560 1560 1559 1558 1558 1557 1556 1555 1553 1552 1550 1549 1548 1546 1544 1542 1541 1539 1538 1536 1535 1533 1532 1531 1530 1528 1527 1526
1561 1561 1562 1562 1562 1562 1562 1562 1562 1562 1562 1561 1561 1560 1560 1559 1559 1558 1557 1557 1556 1555 1554 1552 1550 1549 1548 1546 1544 1543 1541 1539 1538 1536 1535 1533 1532 1530 1529 1528 1526 1525 1524
1559 1560 1560 1560 1560 1561 1561 1561 1561 1561 1561 1560 1560 1559 1559 1558 1557 1557 1556 1555 1554 1553 1552 1551 1549 1547 1546 1544 1543 1541 1539 1537 1536 1535 1533 1531 1530 1528 1527 1526 1524 1523 1521
1557 1557 1558 1558 1559 1559 1559 1559 1559 1559 1559 1559 1558 1558 1557 1557 1556 1555 1554 1553 1552 1551 1550 1549 1547 1546 1544 1542 1541 1539 1537 1535 1533 1532 1530 1529 1527 1526 1524 1523 1521 1520 1518
1554 1555 1556 1556 1557 1557 1557 1557 1558 1558 1557 1557 1556 1556 1556 1555 1554 1553 1553 1551 1551 1549 1548 1547 1545 1544 1542 1541 1539 1537 1535 1533 1530 1530 1528 1526 1525 1523 1521 1519 1518 1516 1515
1552 1552 1553 1554 1554 1555 1555 1555 1555 1555 1555 1555 1554 1554 1553 1553 1552 1551 1550 1549 1548 1547 1546 1545 1543 1542 1540 1538 1537 1535 1533 1531 1528 1527 1525 1522 1521 1519 1518 1516 1514 1512 1511
1549 1549 1550 1551 1552 1552 1553 1553 1553 1553 1553 1552 1552 1552 1551 1550 1550 1549 1547 1546 1545 1544 1543 1542 1541 1539 1538 1536 1534 1533 1530 1528 1526 1524 1523 1519 1517 1515 1514 1512 1510 1508 1507
1546 1547 1547 1548 1549 1549 1550 1550 1550 1550 1550 1550 1549 1549 1548 1547 1547 1546 1544 1543 1542 1541 1540 1539 1538 1536 1535 1533 1531 1529 1527 1525 1522 1520 1519 1516 1513 1511 1509 1507 1506 1504 1502
1543 1544 1545 1545 1546 1546 1547 1547 1547 1547 1546 1546 1546 1546 1545 1544 1543 1542 1541 1540 1538 1538 1537 1535 1534 1533 1531 1529 1528 1526 1524 1521 1518 1516 1515 1513 1510 1507 1504 1502 1501 1499 1497